{"data":{"norad_id":63044,"intl_designator":"2025-034R","name":"STARLINK-32735","alt_names":[],"object_type":"PAYLOAD","status":"ACTIVE","operator":null,"country":"US","launch_date":"2025-02-18","launch_site_code":"AFETR","launch_vehicle":null,"mission":null,"orbit_class":"UNKNOWN","rcs_meters":null,"size_class":null,"mass_kg":null,"dimensions":null,"purposes":["comms"],"wikipedia_slug":null,"has_3d_model":false,"image_url":null,"decayed_at":null,"tle_current":{"epoch":"2026-05-24T16:50:35.015424Z","epoch_age_seconds":96991,"freshness":"FRESH","line1":"1 63044U 25034R   26144.70179416  .00027821  00000+0  83121-3 0  9990","line2":"2 63044  53.1601 277.2013 0001092  80.5783 279.5343 15.34410900 70557","mean_motion":15.344109,"eccentricity":0.0001092,"inclination_deg":53.1601,"raan_deg":277.2013,"arg_perigee_deg":80.5783,"mean_anomaly_deg":279.5343,"bstar":0.00083121,"rev_number":7055,"period_min":93.847091414692,"perigee_km":461.92382708533,"apogee_km":463.41785951831,"semimajor_km":6840.8078433018,"source":"CELESTRAK","updated_at":"2026-05-25T13:38:19.868944Z"}}}